This is the latest recevied weather packets stored in our database for station/object IK1QAD-3. If no packets are shown the sender has not sent any weather packets the latest 10 day(s).
| Time | Temp. | Humidity | Pressure | Rain* | Wind** | Luminosity | Snow |
|---|---|---|---|---|---|---|---|
| 1777736315 | 20.56° C | 51% | 1021.6 hPa | 0 mm | - | - | - |
| 1777736011 | 20° C | 50% | 1021.6 hPa | 0 mm | - | - | - |
| 1777735723 | 20° C | 50% | 1021.7 hPa | 0 mm | - | - | - |
| 1777735422 | 20° C | 47% | 1021.8 hPa | 0 mm | - | - | - |
| 1777735116 | 20° C | 47% | 1021.8 hPa | 0 mm | - | - | - |
| 1777734816 | 19.44° C | 49% | 1021.8 hPa | 0 mm | - | - | - |
| 1777734517 | 19.44° C | 49% | 1022.1 hPa | 0 mm | - | - | - |
| 1777734213 | 19.44° C | 48% | 1022.1 hPa | 0 mm | - | - | - |
| 1777733911 | 19.44° C | 49% | 1022.2 hPa | 0 mm | - | - | - |
| 1777733606 | 19.44° C | 45% | 1022.2 hPa | 0 mm | - | - | - |
| 1777733305 | 20° C | 49% | 1022.3 hPa | 0 mm | - | - | - |
| 1777733024 | 20° C | 46% | 1022.3 hPa | 0 mm | - | - | - |
| 1777732719 | 20° C | 45% | 1022.5 hPa | 0 mm | - | - | - |
| 1777732417 | 20.56° C | 43% | 1022.5 hPa | 0 mm | - | - | - |
| 1777732107 | 20.56° C | 45% | 1022.7 hPa | 0 mm | - | - | - |
| 1777731805 | 20.56° C | 44% | 1022.8 hPa | 0 mm | - | - | - |
| 1777731522 | 20.56° C | 44% | 1022.8 hPa | 0 mm | - | - | - |
| 1777731214 | 20.56° C | 43% | 1022.9 hPa | 0 mm | - | - | - |
| 1777730910 | 20° C | 39% | 1023 hPa | 0 mm | - | - | - |
| 1777730624 | 20° C | 42% | 1023 hPa | 0 mm | - | - | - |
| 1777730321 | 20° C | 40% | 1023.2 hPa | 0 mm | - | - | - |
| 1777730017 | 20.56° C | 38% | 1023.2 hPa | 0 mm | - | - | - |
| 1777729710 | 20° C | 43% | 1023.3 hPa | 0 mm | - | - | - |
| 1777729407 | 20° C | 46% | 1023.4 hPa | 0 mm | - | - | - |
| 1777729121 | 20° C | 44% | 1023.3 hPa | 0 mm | - | - | - |
* Rain latest hour (hover to see other rain measurements)
** Current wind speed in m/s (hover to see current wind gust speed)